EW3989 Weather Reports


Display with metric or nautical units.
time (UTC)temp
F
wind
direction
speed
MPH
gust
MPH
rain 1hr
in
rain 24hr
in
rain mn
in
humidity
%
barometer
mb
20260903224037 81 0.0 0.0 0.00 0.04 0.04 79 1012.6
20260903223020 81 0.0 0.0 0.00 0.04 0.04 79 1012.5
20260903222019 81 0.0 1.0 0.00 0.04 0.04 78 1012.3
20260903221028 81 0.0 2.0 0.00 0.04 0.04 78 1012.0
20260903220028 81 0.0 3.0 0.00 0.04 0.04 78 1011.9
20260903215306 80 0.0 3.0 0.00 0.04 0.04 78 1011.9
20260903214120 80 0.0 4.0 0.00 0.04 0.04 76 1011.9
20260903213013 81 0.0 1.0 0.00 0.04 0.04 76 1011.9
20260903212039 81 0.0 4.0 0.00 0.04 0.04 76 1012.3
20260903211020 81 0.0 1.0 0.00 0.04 0.04 75 1012.4
20260903210019 80 0.0 0.0 0.00 0.04 0.04 76 1012.8
20260903205019 80 0.0 0.0 0.00 0.04 0.04 78 1012.8
20260903204045 79 0.0 0.0 0.00 0.04 0.04 81 1012.7
20260903203019 79 0.0 0.0 0.00 0.04 0.04 84 1012.7
20260903202039 80 0.0 0.0 0.00 0.04 0.04 81 1012.6
20260903201048 80 0.0 0.0 0.00 0.04 0.04 79 1012.8
20260903200019 81 0.0 0.0 0.00 0.04 0.04 74 1012.8
20260903195040 81 0.0 0.0 0.00 0.04 0.04 75 1012.8
20260903194045 81 0.0 0.0 0.00 0.04 0.04 75 1012.4
20260903193019 81 0.0 3.0 0.00 0.04 0.04 76 1012.6
20260903192019 80 0.0 0.0 0.00 0.04 0.04 77 1012.8
20260903191028 81 0.0 0.0 0.00 0.04 0.04 76 1013.0
20260903190045 82 0.0 0.0 0.00 0.04 0.04 73 1013.3
20260903185019 81 0.0 0.0 0.00 0.04 0.04 73 1013.0
20260903184027 81 0.0 2.0 0.00 0.04 0.04 73 1013.1
20260903183019 81 0.0 1.0 0.00 0.04 0.04 78 1013.3
20260903182037 81 0.0 1.0 0.00 0.04 0.04 78 1013.3
20260903181019 79 0.0 1.0 0.00 0.04 0.04 81 1013.0
20260903180027 78 0.0 3.0 0.00 0.04 0.04 83 1012.7
20260903175040 77 0.0 0.0 0.00 0.04 0.04 86 1013.1
20260903174120 76 0.0 0.0 0.00 0.04 0.04 86 1013.3
20260903173019 76 0.0 1.0 0.00 0.04 0.04 87 1013.2
20260903172019 75 0.0 0.0 0.00 0.04 0.04 88 1013.5
20260903171019 75 0.0 1.0 0.00 0.04 0.04 88 1013.1
20260903170020 75 0.0 1.0 0.00 0.04 0.04 88 1013.9
20260903165019 75 0.0 0.0 0.00 0.04 0.04 88 1013.3
20260903164047 75 0.0 0.0 0.00 0.04 0.04 89 1012.2
20260903163019 75 0.0 1.0 0.00 0.04 0.04 88 1013.0
20260903162019 75 0.0 0.0 0.00 0.04 0.04 88 1013.1
20260903161019 74 0.0 1.0 0.00 0.04 0.04 88 1012.5
20260903160019 74 0.0 0.0 0.00 0.04 0.04 85 1013.4
20260903155019 73 0.0 1.0 0.00 0.04 0.04 86 1012.5
20260903154157 73 0.0 1.0 0.00 0.04 0.04 84 1012.3
20260903153018 72 0.0 0.0 0.01 0.04 0.04 83 1012.9
20260903152019 72 0.0 0.0 0.01 0.04 0.04 82 1013.4
20260903151039 72 0.0 1.0 0.01 0.04 0.04 82 1013.6
20260903150019 71 0.0 1.0 0.01 0.04 0.04 80 1013.8
20260903145019 71 0.0 0.0 0.01 0.04 0.04 80 1013.9
20260903144019 70 0.0 0.0 0.01 0.04 0.04 81 1014.0
20260903143039 70 0.0 0.0 0.00 0.03 0.03 80 1013.7
20260903142028 69 0.0 0.0 0.01 0.03 0.03 80 1013.4
20260903141036 69 0.0 0.0 0.03 0.03 0.03 81 1013.5
20260903140019 69 0.0 1.0 0.03 0.03 0.03 81 1013.8
20260903135019 70 0.0 1.0 0.03 0.03 0.03 81 1013.6
20260903134028 70 0.0 2.0 0.03 0.03 0.03 81 1013.6
20260903133036 70 0.0 0.0 0.03 0.03 0.03 81 1013.7
20260903132028 70 0.0 0.0 0.02 0.02 0.02 81 1013.3
20260903131018 70 0.0 0.0 0.00 0.00 0.00 81 1013.3
20260903130019 69 0.0 0.0 0.00 0.00 0.00 82 1013.2
20260903125047 69 0.0 0.0 0.00 0.01 0.00 81 1013.1
20260903124018 69 0.0 0.0 0.00 0.04 0.00 81 1013.0
20260903123019 69 0.0 0.0 0.00 0.07 0.00 81 1013.0
20260903122036 69 0.0 0.0 0.00 0.08 0.00 81 1012.7
20260903121027 68 0.0 0.0 0.00 0.09 0.00 81 1012.6
20260903120019 68 0.0 0.0 0.00 0.11 0.00 82 1012.4
20260903115038 68 0.0 0.0 0.00 0.12 0.00 82 1012.3
20260903114019 68 0.0 0.0 0.00 0.12 0.00 82 1012.4
20260903113130 68 0.0 0.0 0.00 0.12 0.00 81 1012.2
20260903112536 68 0.0 0.0 0.00 0.12 0.00 81 1012.2
20260903111536 68 0.0 0.0 0.00 0.13 0.00 81 1012.3
20260903110519 68 0.0 0.0 0.00 0.13 0.00 82 1012.4
20260903105519 68 0.0 0.0 0.00 0.13 0.00 81 1012.3
20260903104539 68 0.0 0.0 0.00 0.13 0.00 81 1012.4
20260903103518 68 0.0 0.0 0.00 0.13 0.00 81 1012.5
20260903102518 68 0.0 0.0 0.00 0.18 0.00 81 1012.4
20260903101538 67 0.0 0.0 0.00 0.18 0.00 81 1012.4
20260903100544 68 0.0 0.0 0.00 0.18 0.00 81 1012.2
20260903095519 68 0.0 0.0 0.00 0.18 0.00 81 1012.4
20260903094518 68 0.0 0.0 0.00 0.18 0.00 81 1012.4
20260903093547 68 0.0 0.0 0.00 0.18 0.00 81 1012.6
20260903092519 68 0.0 0.0 0.00 0.18 0.00 81 1012.6
20260903091518 68 0.0 0.0 0.00 0.18 0.00 81 1012.6
20260903090535 68 0.0 0.0 0.00 0.22 0.00 81 1012.5
20260903085536 68 0.0 0.0 0.00 0.41 0.00 81 1012.5
20260903084518 68 0.0 0.0 0.00 0.77 0.00 81 1012.5
20260903083527 68 0.0 0.0 0.00 0.92 0.00 81 1012.5
20260903082547 68 0.0 0.0 0.00 0.95 0.00 81 1012.4
20260903081527 68 0.0 0.0 0.00 0.95 0.00 81 1012.4
20260903080535 69 0.0 0.0 0.00 1.01 0.00 81 1012.4
20260903075519 69 0.0 0.0 0.00 1.01 0.00 81 1012.4
20260903074527 68 0.0 0.0 0.00 1.01 0.00 81 1012.4
20260903073520 68 0.0 0.0 0.00 1.01 0.00 81 1012.5
20260903072519 68 0.0 0.0 0.00 1.01 0.00 81 1012.6
20260903071518 68 0.0 0.0 0.00 1.01 0.00 81 1012.6
20260903070518 68 0.0 0.0 0.00 1.01 0.00 81 1012.8
20260903065520 68 0.0 0.0 0.00 1.01 0.00 81 1012.8
20260903064518 68 0.0 0.0 0.00 1.01 0.00 81 1012.9
20260903063528 68 0.0 0.0 0.00 1.01 0.00 81 1013.0
20260903062526 68 0.0 0.0 0.00 1.01 0.00 81 1012.9
20260903061536 67 0.0 0.0 0.00 1.01 0.00 81 1012.7
20260903060518 67 0.0 0.0 0.00 1.01 0.00 81 1012.7
20260903055520 67 0.0 0.0 0.00 1.01 0.00 81 1012.7
20260903054518 68 0.0 0.0 0.00 1.01 0.00 81 1012.7
20260903053540 68 0.0 0.0 0.00 1.01 0.00 81 1012.7
20260903052717 68 0.0 0.0 0.00 1.01 0.00 81 1012.8
20260903052055 68 0.0 0.0 0.00 1.01 0.00 81 1012.9
20260903051020 68 0.0 0.0 0.00 1.01 0.00 81 1012.8
20260903050020 68 0.0 0.0 0.00 1.01 1.01 81 1012.7
20260903045020 68 0.0 0.0 0.00 1.01 1.01 81 1012.8
20260903044037 68 0.0 0.0 0.00 1.01 1.01 81 1012.8
20260903043029 69 0.0 0.0 0.00 1.01 1.01 81 1012.8
20260903042040 69 0.0 0.0 0.00 1.01 1.01 82 1012.7
20260903041037 69 0.0 0.0 0.00 1.01 1.01 82 1012.7
20260903040049 69 0.0 0.0 0.00 1.01 1.01 82 1012.7
20260903035020 69 0.0 0.0 0.00 1.01 1.01 82 1012.6
20260903034028 69 0.0 0.0 0.00 1.01 1.01 82 1012.6
20260903033040 70 0.0 0.0 0.00 1.01 1.01 82 1012.4
20260903032020 70 0.0 0.0 0.00 1.01 1.01 82 1012.3
20260903031019 70 0.0 0.0 0.00 1.01 1.01 83 1012.3
20260903030028 70 0.0 0.0 0.00 1.01 1.01 84 1012.4
20260903025037 70 0.0 0.0 0.00 1.01 1.01 84 1012.3
20260903024049 70 0.0 0.0 0.00 1.01 1.01 85 1012.3
20260903023020 71 0.0 0.0 0.00 1.01 1.01 85 1012.5
20260903022020 71 0.0 0.0 0.00 1.01 1.01 85 1012.3
20260903021037 71 0.0 0.0 0.00 1.01 1.01 86 1012.1
20260903020048 72 0.0 0.0 0.00 1.01 1.01 87 1012.2
20260903015020 72 0.0 0.0 0.00 1.01 1.01 87 1012.3
20260903014020 72 0.0 0.0 0.00 1.01 1.01 88 1012.1
20260903013020 72 0.0 0.0 0.00 1.01 1.01 88 1012.0
20260903012019 73 0.0 0.0 0.00 1.01 1.01 88 1011.9
20260903011040 73 0.0 0.0 0.00 1.01 1.01 88 1011.7
20260903010019 74 0.0 0.0 0.00 1.01 1.01 87 1011.6
20260903005020 74 0.0 0.0 0.00 1.01 1.01 86 1011.5
20260903004029 75 0.0 0.0 0.00 1.01 1.01 85 1011.6
20260903003028 76 0.0 0.0 0.00 1.01 1.01 84 1011.5
20260903002028 77 0.0 0.0 0.00 1.01 1.01 82 1011.6
20260903001020 77 0.0 0.0 0.00 1.01 1.01 80 1011.6
20260903000037 78 0.0 0.0 0.00 1.01 1.01 79 1011.4
20260902235019 79 0.0 0.0 0.00 1.01 1.01 77 1011.5
20260902234019 79 0.0 0.0 0.00 1.01 1.01 75 1011.6
20260902233019 80 0.0 0.0 0.00 1.01 1.01 73 1011.5
20260902232019 81 0.0 0.0 0.00 1.01 1.01 70 1011.6
20260902231040 82 0.0 0.0 0.00 1.01 1.01 68 1011.5
20260902230028 82 0.0 0.0 0.00 1.01 1.01 67 1011.4
20260902225020 82 0.0 1.0 0.00 1.01 1.01 66 1011.4